Location: Moscow
(30.9132°N, 94.8252°W)
Time: 11:31:01
(UTC+00:00)

Cosmos 540 Rocket - Pass Details

Date: 15 November 2025
Orbit: 735 x 747 km, 74.1° (Epoch: 11 December)

Event Time Altitude Azimuth Distance (km) Brightness Sun altitude
Rises 00:39:19 0° 350° (N) 3,188 6.7 -16.8°
Reaches altitude 10° 00:41:46 10° 356° (N) 2,260 5.9 -17.3°
Maximum altitude 00:46:43 48° 71° (ENE) 959 3.6 -18.3°
Drops below altitude 10° 00:51:36 10° 146° (SE) 2,240 5.7 -19.3°
Sets 00:54:01 0° 152° (SSE) 3,157 6.5 -19.9°
